This is the latest recevied weather packets stored in our database for station/object KC5DP. If no packets are shown the sender has not sent any weather packets the latest 10 day(s).
| Time | Temp. | Humidity | Pressure | Rain* | Wind** | Luminosity | Snow |
|---|---|---|---|---|---|---|---|
| 1777502157 | 28.33° C | 66% | 1008.9 hPa | 0 mm | - | 31 W/m² | - |
| 1777501855 | 28.33° C | 65% | 1008.8 hPa | 0 mm | - | 30 W/m² | - |
| 1777500850 | 28.89° C | 65% | 1009 hPa | 0 mm | - | 84 W/m² | - |
| 1777500546 | 28.89° C | 65% | 1009 hPa | 0 mm | - | 84 W/m² | - |
| 1777500242 | 29.44° C | 63% | 1009.2 hPa | 0 mm | - | 92 W/m² | - |
| 1777499939 | 29.44° C | 64% | 1009 hPa | 0 mm | - | 102 W/m² | - |
| 1777499635 | 29.44° C | 65% | 1008.9 hPa | 0 mm | - | 132 W/m² | - |
| 1777499333 | 29.44° C | 63% | 1008.7 hPa | 0 mm | - | 175 W/m² | - |
| 1777499030 | 29.44° C | 63% | 1008.6 hPa | 0 mm | - | 191 W/m² | - |
| 1777498726 | 29.44° C | 64% | 1008.9 hPa | 0 mm | - | 164 W/m² | - |
| 1777498423 | 29.44° C | 64% | 1008.9 hPa | 0 mm | - | 164 W/m² | - |
| 1777498120 | 29.44° C | 63% | 1008.9 hPa | 0 mm | - | 162 W/m² | - |
| 1777497817 | 29.44° C | 62% | 1009.1 hPa | 0 mm | - | 143 W/m² | - |
| 1777497513 | 30° C | 62% | 1009.4 hPa | 0 mm | - | 163 W/m² | - |
| 1777497210 | 30.56° C | 62% | 1009.3 hPa | 0 mm | - | 190 W/m² | - |
| 1777496907 | 30.56° C | 61% | 1009.4 hPa | 0 mm | - | 257 W/m² | - |
| 1777496604 | 30.56° C | 65% | 1009.4 hPa | 0 mm | - | 236 W/m² | - |
| 1777496300 | 30.56° C | 62% | 1009.4 hPa | 0 mm | - | 234 W/m² | - |
| 1777495996 | 31.11° C | 63% | 1009.4 hPa | 0 mm | - | 407 W/m² | - |
| 1777495692 | 31.11° C | 62% | 1009.4 hPa | 0 mm | - | 345 W/m² | - |
| 1777495388 | 30.56° C | 61% | 1009.6 hPa | 0 mm | - | 370 W/m² | - |
| 1777495085 | 30.56° C | 59% | 1009.7 hPa | 0 mm | - | 507 W/m² | - |
| 1777494782 | 30.56° C | 59% | 1009.8 hPa | 0 mm | - | 307 W/m² | - |
| 1777494479 | 31.11° C | 59% | 1009.7 hPa | 0 mm | - | 326 W/m² | - |
| 1777494176 | 30.56° C | 59% | 1010 hPa | 0 mm | - | 361 W/m² | - |
* Rain latest hour (hover to see other rain measurements)
** Current wind speed in m/s (hover to see current wind gust speed)